FW8060 Weather Reports


Display with metric or nautical units.
time (UTC)temp
F
wind
direction
speed
MPH
gust
MPH
rain 1hr
in
rain 24hr
in
rain mn
in
humidity
%
barometer
mb
20260904031437 68 187 5.0 16.0 0.00 0.00 0.00 91 1015.0
20260904031255 68 211 5.0 11.0 0.00 0.00 0.00 91 1014.9
20260904025252 68 184 7.0 18.0 0.00 0.00 0.00 91 1015.1
20260904024252 68 196 5.0 15.0 0.00 0.00 0.00 91 1015.2
20260904023250 68 245 5.0 13.0 0.00 0.00 0.00 91 1015.1
20260904022246 68 219 5.0 15.0 0.00 0.00 0.00 91 1015.1
20260904021253 68 242 7.0 15.0 0.00 0.00 0.00 91 1015.1
20260904020247 68 237 6.0 16.0 0.00 0.00 0.00 91 1015.3
20260904015245 68 250 6.0 14.0 0.00 0.00 0.00 90 1015.7
20260904014245 68 177 5.0 15.0 0.00 0.00 0.00 90 1015.7
20260904014225 68 169 3.0 11.0 0.00 0.00 0.00 89 1015.8
20260904012250 68 142 4.0 13.0 0.00 0.00 0.00 89 1015.9
20260904012207 69 194 6.0 15.0 0.00 0.00 0.00 89 1016.1
20260904010247 69 260 6.0 16.0 0.00 0.00 0.00 89 1016.2
20260904005245 69 226 6.0 15.0 0.00 0.00 0.00 89 1016.3
20260904004242 69 196 5.0 11.0 0.00 0.00 0.00 89 1016.5
20260904003247 69 189 5.0 14.0 0.00 0.00 0.00 89 1016.5
20260904003204 69 211 6.0 15.0 0.00 0.00 0.00 89 1016.6
20260904001300 69 272 5.0 12.0 0.00 0.00 0.00 90 1016.7
20260904001237 69 232 6.0 18.0 0.00 0.00 0.00 89 1016.7
20260903235246 69 220 6.0 14.0 0.00 0.00 0.00 90 1016.7
20260903234239 69 270 6.0 17.0 0.00 0.00 0.00 90 1016.8
20260903233238 69 261 6.0 14.0 0.00 0.00 0.00 90 1016.8
20260903232238 69 232 5.0 12.0 0.00 0.00 0.00 90 1016.9
20260903232152 69 182 5.0 15.0 0.00 0.00 0.00 90 1016.7
20260903230232 69 189 5.0 16.0 0.00 0.00 0.00 90 1017.0
20260903225232 69 200 6.0 14.0 0.00 0.00 0.00 89 1017.0
20260903224233 69 234 6.0 14.0 0.00 0.00 0.00 89 1017.3
20260903224138 70 153 6.0 19.0 0.00 0.00 0.00 89 1017.3
20260903222236 70 227 6.0 14.0 0.00 0.00 0.00 89 1017.5
20260903221234 70 267 6.0 13.0 0.00 0.00 0.00 89 1017.4
20260903220233 70 264 7.0 14.0 0.00 0.00 0.00 89 1017.5
20260903215229 70 198 6.0 16.0 0.00 0.00 0.00 90 1017.4
20260903214228 70 185 6.0 12.0 0.00 0.00 0.00 90 1017.4
20260903213230 69 235 5.0 12.0 0.00 0.00 0.00 89 1017.3
20260903213150 70 218 6.0 15.0 0.00 0.00 0.00 89 1017.3
20260903211228 70 198 7.0 15.0 0.00 0.00 0.00 89 1017.7
20260903210233 70 252 6.0 15.0 0.00 0.00 0.00 89 1017.7
20260903205240 70 225 7.0 14.0 0.00 0.00 0.00 89 1018.0
20260903204232 70 169 5.0 14.0 0.00 0.00 0.00 89 1018.0
20260903203230 70 229 8.0 17.0 0.00 0.00 0.00 89 1018.1
20260903202228 70 269 6.0 15.0 0.00 0.00 0.00 89 1018.1
20260903201226 70 178 6.0 15.0 0.00 0.00 0.00 89 1018.1
20260903200942 70 182 7.0 16.0 0.00 0.00 0.00 88 1018.2
20260903200817 70 158 7.0 17.0 0.00 0.00 0.00 88 1018.0
20260903200639 70 208 6.0 14.0 0.00 0.00 0.00 88 1018.0
20260903200316 70 219 6.0 15.0 0.00 0.00 0.00 89 1018.0
20260903192213 70 198 6.0 16.0 0.00 0.00 0.00 88 1018.3
20260903191214 70 233 6.0 17.0 0.00 0.00 0.00 88 1018.4
20260903191152 70 204 5.0 14.0 0.00 0.00 0.00 87 1018.1
20260903185221 70 196 5.0 14.0 0.00 0.00 0.00 87 1018.1
20260903184221 70 163 6.0 16.0 0.00 0.00 0.00 87 1018.0
20260903183223 70 288 4.0 11.0 0.00 0.00 0.00 87 1018.0
20260903182639 71 219 6.0 18.0 0.00 0.00 0.00 86 1018.1
20260903182546 71 292 7.0 16.0 0.00 0.00 0.00 86 1018.1
20260903182243 71 206 7.0 15.0 0.00 0.00 0.00 86 1018.0
20260903175212 71 241 6.0 15.0 0.00 0.00 0.00 86 1018.2
20260903174208 71 266 7.0 15.0 0.00 0.00 0.00 85 1018.1
20260903173208 71 209 7.0 16.0 0.00 0.00 0.00 85 1018.0
20260903172222 71 227 7.0 17.0 0.00 0.00 0.00 84 1018.1
20260903171206 71 237 6.0 16.0 0.00 0.00 0.00 84 1018.0
20260903171105 72 204 7.0 16.0 0.00 0.00 0.00 84 1018.0
20260903165206 72 269 6.0 18.0 0.00 0.00 0.00 83 1018.0
20260903164206 72 173 6.0 16.0 0.00 0.00 0.00 83 1018.2
20260903163208 72 264 8.0 18.0 0.00 0.00 0.00 82 1018.3
20260903162206 72 263 7.0 17.0 0.00 0.00 0.00 82 1018.4
20260903161205 73 226 7.0 15.0 0.00 0.00 0.00 80 1018.4
20260903160209 73 222 7.0 13.0 0.00 0.00 0.00 80 1018.3
20260903155543 73 232 8.0 20.0 0.00 0.00 0.00 80 1018.3
20260903154545 74 173 9.0 20.0 0.00 0.00 0.00 79 1018.3
20260903153543 74 132 7.0 17.0 0.00 0.00 0.00 77 1018.0
20260903152543 74 216 8.0 17.0 0.00 0.00 0.00 76 1018.2
20260903151545 74 214 8.0 17.0 0.00 0.00 0.00 76 1018.3
20260903150546 74 171 8.0 20.0 0.00 0.00 0.00 77 1018.3
20260903145543 74 240 6.0 14.0 0.00 0.00 0.00 78 1018.4
20260903144555 74 197 8.0 19.0 0.00 0.00 0.00 76 1018.4
20260903143548 74 279 10.0 21.0 0.00 0.00 0.00 75 1018.6
20260903142553 75 265 9.0 20.0 0.00 0.00 0.00 76 1018.6
20260903141547 73 214 6.0 17.0 0.00 0.00 0.00 79 1018.4
20260903140545 73 272 7.0 17.0 0.00 0.00 0.00 79 1018.6
20260903135540 73 254 8.0 21.0 0.00 0.00 0.00 80 1018.8
20260903134540 73 200 7.0 20.0 0.00 0.00 0.00 80 1018.6
20260903133538 73 260 6.0 16.0 0.00 0.00 0.00 80 1018.8
20260903133439 73 270 9.0 20.0 0.00 0.00 0.00 78 1018.6
20260903131545 73 239 9.0 18.0 0.00 0.00 0.00 77 1018.8
20260903131413 74 217 8.0 21.0 0.00 0.00 0.00 76 1018.6
20260903130321 74 252 11.0 24.0 0.00 0.00 0.00 75 1018.6
20260903130227 74 257 9.0 18.0 0.00 0.00 0.00 76 1018.6
20260903125656 74 182 8.0 23.0 0.00 0.00 0.00 77 1018.5
20260903122539 74 279 8.0 17.0 0.00 0.00 0.00 77 1018.4
20260903122440 73 262 8.0 18.0 0.00 0.00 0.00 77 1018.4
20260903120625 73 252 8.0 20.0 0.00 0.00 0.00 77 1018.6
20260903120533 73 276 9.0 20.0 0.00 0.00 0.00 79 1018.6
20260903115730 72 267 10.0 25.0 0.00 0.00 0.00 79 1018.6
20260903113541 73 269 9.0 18.0 0.00 0.00 0.00 79 1018.4
20260903113407 72 221 7.0 21.0 0.00 0.00 0.00 82 1018.5
20260903112737 73 270 10.0 19.0 0.00 0.00 0.00 81 1018.4
20260903111441 71 229 8.0 20.0 0.00 0.00 0.00 85 1018.4
20260903105535 70 256 8.0 17.0 0.00 0.00 0.00 87 1018.4
20260903105422 70 240 7.0 19.0 0.00 0.00 0.00 89 1018.4
20260903104428 70 263 8.0 18.0 0.00 0.00 0.00 88 1018.4
20260903102528 69 164 7.0 15.0 0.00 0.00 0.00 88 1018.5
20260903101529 69 186 7.0 15.0 0.00 0.00 0.00 88 1018.5
20260903101342 69 182 9.0 20.0 0.00 0.00 0.00 87 1018.6
20260903095528 69 261 9.0 19.0 0.00 0.00 0.00 87 1018.5
20260903094526 69 242 7.0 16.0 0.00 0.00 0.00 87 1018.6
20260903093527 69 226 7.0 13.0 0.00 0.00 0.00 88 1018.6
20260903092525 68 236 6.0 17.0 0.00 0.00 0.00 88 1018.5
20260903091528 68 266 7.0 19.0 0.00 0.00 0.00 89 1018.5
20260903090532 68 257 8.0 19.0 0.00 0.00 0.00 89 1018.3
20260903085532 68 292 6.0 16.0 0.00 0.00 0.00 89 1018.2
20260903084532 68 267 7.0 15.0 0.00 0.00 0.00 89 1018.2
20260903083532 67 284 9.0 20.0 0.00 0.00 0.00 89 1018.0
20260903082532 67 261 7.0 17.0 0.00 0.00 0.00 89 1018.3
20260903082414 67 232 6.0 16.0 0.00 0.00 0.00 89 1018.2
20260903080530 67 162 4.0 13.0 0.00 0.00 0.00 89 1018.2
20260903075527 67 229 5.0 12.0 0.00 0.00 0.00 89 1017.9
20260903074526 67 221 5.0 13.0 0.00 0.00 0.00 89 1018.0
20260903073526 67 222 6.0 11.0 0.00 0.00 0.00 89 1018.1
20260903072522 67 259 4.0 11.0 0.00 0.00 0.00 88 1018.2
20260903071526 67 219 6.0 14.0 0.00 0.00 0.00 88 1018.1
20260903071439 66 183 6.0 13.0 0.00 0.00 0.00 88 1018.0
20260903065524 66 180 5.0 11.0 0.00 0.00 0.00 88 1018.0
20260903064523 66 221 5.0 12.0 0.00 0.00 0.00 88 1018.0
20260903063522 66 245 5.0 15.0 0.00 0.00 0.00 88 1017.7
20260903062516 66 221 6.0 14.0 0.00 0.00 0.00 88 1017.4
20260903061517 66 184 6.0 17.0 0.00 0.00 0.00 88 1017.4
20260903060523 66 240 6.0 14.0 0.00 0.00 0.00 88 1017.3
20260903055524 66 196 6.0 19.0 0.00 0.00 0.00 88 1017.4
20260903054520 67 229 6.0 17.0 0.00 0.00 0.00 87 1017.4
20260903054441 67 269 7.0 18.0 0.00 0.00 0.00 87 1017.5
20260903052518 67 240 5.0 13.0 0.00 0.00 0.00 88 1017.4
20260903051515 67 227 5.0 12.0 0.00 0.00 0.00 88 1017.3
20260903050515 66 200 5.0 15.0 0.00 0.00 0.00 88 1017.0
20260903045512 66 211 5.0 12.0 0.00 0.00 0.00 89 1017.2
20260903044508 66 173 5.0 13.0 0.00 0.00 0.00 89 1017.3
20260903043507 66 172 4.0 12.0 0.00 0.00 0.00 89 1017.2
20260903043348 66 168 3.0 11.0 0.00 0.00 0.00 89 1017.2
20260903041507 66 198 3.0 9.0 0.00 0.00 0.00 89 1017.2
20260903040506 66 121 4.0 12.0 0.00 0.00 0.00 88 1017.2
20260903035514 66 146 3.0 11.0 0.00 0.00 0.00 88 1017.4
20260903034513 66 234 3.0 8.0 0.00 0.00 0.00 87 1017.5
20260903034012 66 196 4.0 10.0 0.00 0.00 0.00 86 1017.6